Regional Weather Roundup
Issued by NWS Goodland, KS

Home | Current Version | Previous Version | Graphics & Text | Print | Product List | Glossary On
Versions: 1 2 3 4 5 6 7 8 9 10 11 12 13 14 15 16 17 18 19 20 21 22 23 24 25 26 27 28 29 30 31 32 33 34 35 36 37 38 39 40 41 42 43 44 45 46 47 48 49 50
000
ASUS43 KGLD 310059
RWRGLD

GOODLAND FORECAST AREA HOURLY WEATHER ROUNDUP
NATIONAL WEATHER SERVICE GOODLAND KS
700 PM MDT THU OCT 30 2014

...OFFICIAL OBSERVATIONS...

CITY           SKY/WX    TMP DP  RH WIND       PRES   REMARKS
GOODLAND KS    CLEAR     47  27  45 N5        30.34R
HILL CITY KS   CLEAR     50  30  46 N9        30.30R
IMPERIAL NEB   CLEAR     48  29  47 NE9       30.35R
MCCOOK NEB     CLEAR     51  30  44 N9        30.33R
AKRON CO       CLEAR     47  27  45 NE9       30.36R
BURLINGTON CO  CLEAR     47  24  40 NE5       30.35R
LIMON CO       CLEAR     41  24  51 CALM      30.38R
$$

...UNOFFICIAL OBSERVATIONS...

CITY           SKY/WX    TMP DP  RH WIND       PRES   REMARKS
COLBY KS       CLEAR     52  32  46 N7        30.33R
NORTON KS      CLEAR     48  27  43 N8        30.29R
SHARON SPRINGS   N/A     50  29  44 CALM        N/A
TRIBUNE KS     CLEAR     54  36  50 N7        30.34R
TRENTON NEB      N/A     53  32  45 N9          N/A
YUMA CO          N/A     48  27  44 NE6         N/A
$$



USA.gov is the U.S. government's official web portal to all federal, state and local government web resources and services.